User: anonymous   Login
Location: Unspecified
(0.0000°N, 0.0000°E)
Time: 04:31:12
(UTC+00:00)
Language:

CUSAT 1 - Orbit

View from above orbital plane
View from above orbital plane
View from above satellite
View from above satellite

Ground track
Ground track

The orbit data is extracted from the following two-line orbital elements,

1 39266U 13055B   18350.50228146  .00001935  00000-0  51249-4 0  9998
2 39266  80.9831 155.9210 0644146  63.7341 302.8560 14.33740839270307
Epoch (UTC): 16 December 2018 12:03:17
Eccentricity: 0.0644146
inclination: 80.9831°
perigee height: 318 km
apogee height: 1240 km
right ascension of ascending node: 155.9210°
argument of perigee: 63.7341°
revolutions per day: 14.33740839
mean anomaly at epoch: 302.8560°
orbit number at epoch: 27030

The dashed part of the orbit path shows where the satellite is in the earth's shadow,  

DLR